(602) Marianna
ephemeris date magn radius delta ra dec elong phase
Today5 Sep 202615.53.851 AU4.668 AU12h32m-13°50'32.1°8.0°
Opposition11 May 202714.03.646 AU2.682 AU14h46m-37°28'159.6°5.5°
(602) Marianna - 2026-09-05
astro.vanbuitenen.nl


 
-1 year
-1 month
-1 day
Now
+1 day
+1 month
+1 year

The interactive orbit chart above shows the body's path through the solar system and its position at the given date. Green and blue lines are shown perpendicular to the ecliptic plane: Green if the path is above the ecliptic plane, blue if it is below. (Left-click and drag to rotate the view; Right-click and drag to move the view; Use scroll wheel to zoom in our out.)

The orbital elements of Marianna are:

            e (Eccentricity)                : 0.2519111
            a (Semimajor axis)              : 3.0799419
            i (Inclination)                 : 15.11636
            Ω (Longitude of ascending node) : 331.38799
            ω (Argument of perihelion)      : 45.54287
            M (Mean anomaly)                : 171.68733
            Epoch                           : 2026 Jun 09

            L (Longitude of perihelion)     : 15.92209
            B (Latitude of perihelion)      : 10.72750
            P (Orbital period in years)     : 5.41            
        

The light curve chart below shows the estimated development of the minor planet's magnitude.


The all-sky chart below shows the path of the minor planet over the same period as the light curve. The current position is marked yellow.





The following chart shows the path of the minor planet in the next few days. The field of view is optimized for (~10x50) binoculars and finderscopes.




Ephemerides:
Date       Time       RA (2000)    DEC (2000)    delta   radius  elong  phase   PA    magn
2026-09-05 00:00 UT   12 32 04.7   -13 50 20     4.668    3.851   32.1    8.0   129   15.5 
2026-09-05 00:22 UT   12 32 05.7   -13 50 26     4.669    3.851   32.1    8.0   129   15.5 
2026-09-06 00:00 UT   12 33 06.3   -13 56 53     4.676    3.851   31.4    7.8   129   15.5 
2026-09-07 00:00 UT   12 34 08.1   -14 03 28     4.682    3.851   30.7    7.7   130   15.5 
2026-09-08 00:00 UT   12 35 10.2   -14 10 05     4.689    3.851   30.1    7.5   130   15.5 
2026-09-09 00:00 UT   12 36 12.4   -14 16 44     4.696    3.850   29.4    7.4   131   15.5 
2026-09-10 00:00 UT   12 37 14.9   -14 23 25     4.702    3.850   28.8    7.2   131   15.5 
2026-09-11 00:00 UT   12 38 17.6   -14 30 08     4.708    3.850   28.1    7.1   132   15.5 
2026-09-12 00:00 UT   12 39 20.5   -14 36 53     4.714    3.850   27.5    6.9   132   15.5 
2026-09-13 00:00 UT   12 40 23.6   -14 43 39     4.720    3.849   26.9    6.8   133   15.5 
2026-09-14 00:00 UT   12 41 26.9   -14 50 28     4.726    3.849   26.2    6.6   133   15.5 
2026-09-15 00:00 UT   12 42 30.4   -14 57 18     4.732    3.849   25.6    6.5   134   15.4 
2026-09-16 00:00 UT   12 43 34.0   -15 04 10     4.737    3.849   24.9    6.3   135   15.4 
2026-09-17 00:00 UT   12 44 37.9   -15 11 03     4.742    3.848   24.3    6.2   135   15.4 
2026-09-18 00:00 UT   12 45 41.9   -15 17 58     4.747    3.848   23.7    6.0   136   15.4 
2026-09-19 00:00 UT   12 46 46.1   -15 24 55     4.752    3.848   23.1    5.9   137   15.4 
2026-09-20 00:00 UT   12 47 50.5   -15 31 53     4.757    3.848   22.4    5.7   137   15.4 
2026-09-21 00:00 UT   12 48 55.1   -15 38 53     4.761    3.847   21.8    5.6   138   15.4 
2026-09-22 00:00 UT   12 49 59.8   -15 45 54     4.766    3.847   21.2    5.4   139   15.4 
2026-09-23 00:00 UT   12 51 04.7   -15 52 57     4.770    3.847   20.6    5.3   140   15.4 
2026-09-24 00:00 UT   12 52 09.7   -16 00 01     4.774    3.846   20.0    5.1   141   15.4 
2026-09-25 00:00 UT   12 53 14.9   -16 07 06     4.778    3.846   19.4    5.0   142   15.4 
2026-09-26 00:00 UT   12 54 20.2   -16 14 13     4.781    3.846   18.8    4.8   143   15.4 
2026-09-27 00:00 UT   12 55 25.7   -16 21 21     4.785    3.845   18.2    4.7   144   15.4 
2026-09-28 00:00 UT   12 56 31.3   -16 28 30     4.788    3.845   17.7    4.5   145   15.4 
2026-09-29 00:00 UT   12 57 37.1   -16 35 41     4.791    3.845   17.1    4.4   146   15.4 
2026-09-30 00:00 UT   12 58 43.0   -16 42 52     4.794    3.844   16.5    4.3   148   15.4 
2026-10-01 00:00 UT   12 59 49.1   -16 50 05     4.797    3.844   16.0    4.1   149   15.4 
2026-10-02 00:00 UT   13 00 55.3   -16 57 19     4.799    3.844   15.5    4.0   151   15.3 
2026-10-03 00:00 UT   13 02 01.6   -17 04 34     4.802    3.843   14.9    3.8   153   15.3 
2026-10-04 00:00 UT   13 03 08.1   -17 11 51     4.804    3.843   14.4    3.7   154   15.3 
2026-10-05 00:00 UT   13 04 14.7   -17 19 08     4.806    3.843   13.9    3.6   156   15.3 


    Terminology:
            
    delta:  distance between minor planet and earth in AU
    radius: distance between minor planet and sun in AU
    magn:   magnitude (brightness) estimate    
    ra:     right ascension in hours (24h = 360deg)
    dec:    declination in degrees
    elong:  elongation in degrees (angle sun-earth-minor planet)    
    phase:  phase angle in degrees (angle sun-minor planet-earth)        
    AU:     Astronomical Unit (mean distance between earth and sun: 149597870.7 km
    

Orbital elements provided by the MPC (Minor Planet Center).
Calculations by a modified version of AAPlus, a C# implementation of the AA+ project by PJ Naughter from the algorithms presented in the book "Astronomical Algorithms" by Jean Meeus.
NGC2000 dso catalog and star labels from VizieR as provided by the Strasbourg astronomical Data Center.
Tycho2 catalog from the ESO archive.